When you browse on this site, cookies collect data to enhance your experience and personalize the content and advertising you see.
Visit our Privacy Policy to learn more. By continuing to use the site, you agree to this use of cookies and data.
  • In Österreich
  • Länderverzeichnis
  • Für 7 Tage
  • Wassertemperatur
  • Wetterkarte
  • News
  • Widgets
  • user-avatar
    Anmelden

    Stündliche Wetter Arkadia

    Heute, 27 Januar, Montag

    Zeit Temperatur Niederschläge Wind Luftdruck Luftfeuchtigkeit
    00:00 +6°C° 0.1 mm 1 m/S 667 mmHg 92%
    01:00 +6°C° 0 mm 1 m/S 667 mmHg 94%
    02:00 +6°C° 0.1 mm 1 m/S 666 mmHg 94%
    03:00 +6°C° 0.1 mm 1 m/S 666 mmHg 95%
    04:00 +6°C° 0.1 mm 1 m/S 665 mmHg 96%
    05:00 +6°C° 0 mm 1 m/S 665 mmHg 96%
    06:00 +6°C° 0 mm 1 m/S 665 mmHg 96%
    07:00 +4°C° 0 mm 2 m/S 665 mmHg 96%
    08:00 +5°C° 1.3 mm 2 m/S 665 mmHg 94%
    09:00 +5°C° 1.3 mm 2 m/S 665 mmHg 93%
    10:00 +6°C° 1.3 mm 2 m/S 665 mmHg 92%
    11:00 +6°C° 1.1 mm 2 m/S 665 mmHg 90%
    12:00 +6°C° 1.1 mm 2 m/S 665 mmHg 88%
    13:00 +6°C° 1.1 mm 2 m/S 664 mmHg 86%
    14:00 +6°C° 0.2 mm 2 m/S 664 mmHg 86%
    15:00 +6°C° 0.2 mm 2 m/S 664 mmHg 87%
    16:00 +6°C° 0.2 mm 2 m/S 664 mmHg 88%
    17:00 +5°C° 0.1 mm 2 m/S 664 mmHg 90%
    18:00 +4°C° 0.1 mm 2 m/S 663 mmHg 92%
    19:00 +3°C° 0.1 mm 2 m/S 663 mmHg 94%
    20:00 +3°C° 0 mm 2 m/S 663 mmHg 94%
    21:00 +3°C° 0 mm 2 m/S 663 mmHg 94%
    22:00 +3°C° 0 mm 2 m/S 663 mmHg 94%
    23:00 +3°C° 0 mm 2 m/S 663 mmHg 94%

    Morgen, 28 Januar, Dienstag

    Zeit Temperatur Niederschläge Wind Luftdruck Luftfeuchtigkeit
    00:00 +3°C° 0 mm 2 m/S 663 mmHg 94%
    01:00 +3°C° 0 mm 2 m/S 663 mmHg 94%
    02:00 +3°C° 0 mm 2 m/S 663 mmHg 94%
    03:00 +3°C° 0 mm 2 m/S 663 mmHg 94%
    04:00 +3°C° 0 mm 2 m/S 662 mmHg 94%
    05:00 +3°C° 0 mm 2 m/S 663 mmHg 94%
    06:00 +2°C° 0 mm 2 m/S 663 mmHg 94%
    07:00 +2°C° 0 mm 2 m/S 663 mmHg 95%
    08:00 +4°C° 0 mm 2 m/S 664 mmHg 88%
    09:00 +4°C° 0 mm 3 m/S 664 mmHg 82%
    10:00 +5°C° 0 mm 3 m/S 665 mmHg 76%
    11:00 +6°C° 0 mm 4 m/S 665 mmHg 73%
    12:00 +7°C° 0 mm 4 m/S 665 mmHg 69%
    13:00 +7°C° 0 mm 4 m/S 665 mmHg 66%
    14:00 +7°C° 0 mm 4 m/S 664 mmHg 70%
    15:00 +6°C° 0 mm 4 m/S 664 mmHg 73%
    16:00 +5°C° 0 mm 3 m/S 663 mmHg 77%
    17:00 +4°C° 0 mm 3 m/S 663 mmHg 83%
    18:00 +4°C° 0 mm 2 m/S 663 mmHg 88%
    19:00 +3°C° 0 mm 2 m/S 663 mmHg 94%
    20:00 +3°C° 0 mm 2 m/S 663 mmHg 94%
    21:00 +3°C° 0 mm 2 m/S 663 mmHg 93%
    22:00 +3°C° 0 mm 2 m/S 663 mmHg 93%
    23:00 +3°C° 0.1 mm 2 m/S 663 mmHg 93%

    übermorgen, 29 Januar, Mittwoch

    Zeit Temperatur Niederschläge Wind Luftdruck Luftfeuchtigkeit
    00:00 +3°C° 0.1 mm 2 m/S 663 mmHg 93%
    01:00 +4°C° 0.1 mm 2 m/S 663 mmHg 93%
    02:00 +4°C° 0.1 mm 2 m/S 663 mmHg 93%
    03:00 +4°C° 0.1 mm 2 m/S 663 mmHg 93%
    04:00 +4°C° 0.1 mm 2 m/S 662 mmHg 93%
    05:00 +3°C° 0.1 mm 3 m/S 663 mmHg 94%
    06:00 +3°C° 0.1 mm 3 m/S 663 mmHg 94%
    07:00 +4°C° 0.1 mm 3 m/S 663 mmHg 94%
    08:00 +4°C° 0.1 mm 3 m/S 663 mmHg 91%
    09:00 +5°C° 0.1 mm 3 m/S 663 mmHg 89%
    10:00 +5°C° 0.1 mm 4 m/S 664 mmHg 87%
    11:00 +5°C° 0.1 mm 4 m/S 663 mmHg 87%
    12:00 +5°C° 0.1 mm 4 m/S 663 mmHg 88%
    13:00 +6°C° 0.1 mm 4 m/S 663 mmHg 88%
    14:00 +5°C° 0.2 mm 4 m/S 663 mmHg 88%
    15:00 +5°C° 0.2 mm 4 m/S 663 mmHg 88%
    16:00 +5°C° 0.2 mm 4 m/S 662 mmHg 88%
    17:00 +5°C° 0.1 mm 4 m/S 663 mmHg 89%
    18:00 +4°C° 0.1 mm 4 m/S 663 mmHg 90%
    19:00 +4°C° 0.1 mm 4 m/S 663 mmHg 91%
    20:00 +4°C° 0.1 mm 4 m/S 663 mmHg 92%
    21:00 +4°C° 0.1 mm 3 m/S 663 mmHg 93%
    22:00 +4°C° 0.1 mm 3 m/S 663 mmHg 94%
    23:00 +4°C° 0.1 mm 3 m/S 662 mmHg 94%

    30 Januar, Donnerstag

    Zeit Temperatur Niederschläge Wind Luftdruck Luftfeuchtigkeit
    00:00 +4°C° 0.1 mm 3 m/S 662 mmHg 94%
    01:00 +4°C° 0.1 mm 3 m/S 662 mmHg 94%
    02:00 +4°C° 0.1 mm 3 m/S 662 mmHg 94%
    03:00 +4°C° 0.1 mm 3 m/S 661 mmHg 94%
    04:00 +3°C° 0.1 mm 3 m/S 661 mmHg 95%
    05:00 +4°C° 0.8 mm 3 m/S 661 mmHg 95%
    06:00 +4°C° 0.8 mm 4 m/S 661 mmHg 95%
    07:00 +4°C° 0.8 mm 4 m/S 661 mmHg 95%
    08:00 +5°C° 0.5 mm 4 m/S 661 mmHg 94%
    09:00 +5°C° 0.5 mm 4 m/S 661 mmHg 92%
    10:00 +6°C° 0.5 mm 5 m/S 662 mmHg 90%
    11:00 +6°C° 0.1 mm 5 m/S 662 mmHg 84%
    12:00 +7°C° 0.1 mm 6 m/S 662 mmHg 78%
    13:00 +7°C° 0.1 mm 6 m/S 662 mmHg 72%
    14:00 +5°C° 0 mm 6 m/S 662 mmHg 71%
    15:00 +5°C° 0 mm 6 m/S 662 mmHg 70%
    16:00 +5°C° 0 mm 5 m/S 662 mmHg 69%
    17:00 +3°C° 0 mm 4 m/S 662 mmHg 72%
    18:00 +1°C° 0 mm 3 m/S 662 mmHg 74%
    19:00 +1°C° 0 mm 2 m/S 662 mmHg 76%
    20:00 -1°C° 0 mm 2 m/S 663 mmHg 79%
    21:00 -1°C° 0 mm 2 m/S 664 mmHg 81%
    22:00 +1°C° 0 mm 1 m/S 664 mmHg 84%
    23:00 0°C° 0 mm 1 m/S 664 mmHg 81%

    31 Januar, Freitag

    Zeit Temperatur Niederschläge Wind Luftdruck Luftfeuchtigkeit
    00:00 0°C° 0 mm 1 m/S 664 mmHg 79%
    01:00 -1°C° 0 mm 1 m/S 664 mmHg 76%
    02:00 -1°C° 0 mm 1 m/S 664 mmHg 70%
    03:00 -1°C° 0 mm 1 m/S 664 mmHg 65%
    04:00 -1°C° 0 mm 1 m/S 664 mmHg 59%
    05:00 -1°C° 0 mm 1 m/S 665 mmHg 56%
    06:00 -1°C° 0 mm 1 m/S 665 mmHg 52%
    07:00 0°C° 0 mm 1 m/S 665 mmHg 49%
    08:00 +2°C° 0 mm 1 m/S 666 mmHg 44%
    09:00 +4°C° 0 mm 1 m/S 667 mmHg 38%
    10:00 +5°C° 0 mm 2 m/S 668 mmHg 32%
    11:00 +6°C° 0 mm 2 m/S 668 mmHg 33%
    12:00 +6°C° 0 mm 2 m/S 667 mmHg 34%
    13:00 +7°C° 0 mm 3 m/S 667 mmHg 36%
    14:00 +6°C° 0 mm 2 m/S 667 mmHg 43%
    15:00 +5°C° 0 mm 2 m/S 666 mmHg 51%
    16:00 +4°C° 0 mm 2 m/S 666 mmHg 59%
    17:00 +3°C° 0 mm 2 m/S 665 mmHg 65%
    18:00 +1°C° 0 mm 2 m/S 664 mmHg 72%
    19:00 -1°C° 0 mm 2 m/S 664 mmHg 79%
    20:00 -2°C° 0 mm 2 m/S 664 mmHg 81%
    21:00 -2°C° 0 mm 2 m/S 664 mmHg 84%
    22:00 -2°C° 0 mm 2 m/S 664 mmHg 86%
    23:00 -1°C° 0 mm 2 m/S 664 mmHg 86%

    1 Februar, Samstag

    Zeit Temperatur Niederschläge Wind Luftdruck Luftfeuchtigkeit
    00:00 -1°C° 0 mm 2 m/S 664 mmHg 87%
    01:00 -1°C° 0 mm 2 m/S 663 mmHg 87%
    02:00 -1°C° 0 mm 2 m/S 663 mmHg 88%
    03:00 +1°C° 0 mm 2 m/S 663 mmHg 90%
    04:00 +1°C° 0 mm 2 m/S 663 mmHg 91%
    05:00 +1°C° 0 mm 2 m/S 663 mmHg 92%
    06:00 +2°C° 0 mm 1 m/S 663 mmHg 94%
    07:00 +3°C° 0 mm 1 m/S 663 mmHg 95%
    08:00 +4°C° 0 mm 1 m/S 664 mmHg 87%
    09:00 +6°C° 0 mm 1 m/S 665 mmHg 79%
    10:00 +8°C° 0 mm 1 m/S 666 mmHg 71%
    11:00 +9°C° 0 mm 1 m/S 666 mmHg 67%
    12:00 +10°C° 0 mm 1 m/S 666 mmHg 63%
    13:00 +11°C° 0 mm 1 m/S 666 mmHg 59%
    14:00 +10°C° 0 mm 1 m/S 666 mmHg 64%
    15:00 +10°C° 0 mm 1 m/S 666 mmHg 69%
    16:00 +9°C° 0 mm 1 m/S 666 mmHg 75%
    17:00 +7°C° 0 mm 1 m/S 665 mmHg 80%
    18:00 +6°C° 0 mm 1 m/S 665 mmHg 85%
    19:00 +3°C° 0 mm 0 m/S 665 mmHg 90%
    20:00 +3°C° 0 mm 0 m/S 665 mmHg 90%
    21:00 +3°C° 0 mm 0 m/S 666 mmHg 90%
    22:00 +3°C° 0 mm 0 m/S 666 mmHg 90%
    23:00 +2°C° 0 mm 0 m/S 666 mmHg 90%
    Mehr zeigen